Location: Newark
(32.9900°N, 111.5400°W)
Time: 15:17:40
(UTC+00:00)

N. Korean satellite - Pass Details

Date: 21 November 2019
Orbit: 455 x 507 km, 97.2° (Epoch: 14 December)

Event Time Altitude Azimuth Distance (km) Brightness Sun altitude
Rises 13:10:50 0° 12° (NNE) 2,598 10.2 -10.9°
Reaches altitude 10° 13:12:56 10° 13° (NNE) 1,704 9.3 -10.5°
Maximum altitude 13:16:36 84° 99° (E) 500 6.7 -9.8°
Drops below altitude 10° 13:20:12 10° 190° (S) 1,665 9.4 -9.0°
Sets 13:22:14 0° 191° (S) 2,532 10.3 -8.6°
